Regional Weather Roundup
Issued by NWS Huntsville, AL

Home | Current Version | Previous Version | Text Only | Print | Product List | Glossary On
Versions: 1 2 3 4 5 6 7 8 9 10 11 12 13 14 15 16 17 18 19 20 21 22 23 24 25 26 27
000
ASUS44 KHUN 220510
RWRHUN

WEATHER ROUNDUP FOR THE TENNESSEE VALLEY
NATIONAL WEATHER SERVICE HUNTSVILLE AL
1200 AM CDT FRI SEP 22 2017

ALZ001>004-220600-
NORTHWEST ALABAMA

CITY           SKY/WX    TMP DP  RH WIND       PRES   REMARKS
COURTLAND HCN    N/A     68 N/A N/A CALM        N/A
RUSSELLVILLE     N/A     66 N/A N/A MISG        N/A
SHOALS AIRPORT CLEAR     67  64  90 NW3       30.05F
SHOALS TVA RES   N/A     68 N/A N/A MISG        N/A
$$

ALZ005>007-016-220600-
NORTH CENTRAL ALABAMA

CITY           SKY/WX    TMP DP  RH WIND       PRES   REMARKS
CULLMAN AG STN   N/A     70 N/A N/A CALM        N/A
DECATUR AP     CLEAR     68  68 100 CALM      30.04F
HUNTSVILLE AP  CLEAR     71  71 100 CALM      30.03F
MERIDIANVILLE  CLEAR     68  68 100 CALM      30.05S
REDSTONE ARSN  LGT RAIN  70  70 100 CALM      30.03F FOG
VINEMONT AP      N/A     67  66  97 CALM      30.08S FOG
$$

ALZ008>010-220600-
NORTHEAST ALABAMA

CITY           SKY/WX    TMP DP  RH WIND       PRES   REMARKS
ALBERTVILLE    CLEAR     70  70 100 N3        30.05S
FORT PAYNE     FOG       68  64  88 CALM      30.04F VSB 1/4
SCOTTSBORO HCN   N/A     68 N/A N/A MISG        N/A
VALLEY HEAD      N/A     66 N/A N/A MISG        N/A
$$

TNZ076-096-097-220600-
SOUTHEASTERN MIDDLE TENNESSEE

CITY           SKY/WX    TMP DP  RH WIND       PRES   REMARKS
TULLAHOMA        N/A     64  63  94 CALM      30.08S VSB 1/2
WINCHESTER     CLOUDY    63  63 100 CALM      30.07S VSB 1/4
$$

...SURROUNDING SITES...

CITY           SKY/WX    TMP DP  RH WIND       PRES   REMARKS
ATLANTA        PTCLDY    74  65  73 NE7       30.04F
ANNISTON       CLEAR     70  68  93 CALM      30.03F
BIRMINGHAM     CLEAR     73  70  90 CALM      30.05F
CHATTANOOGA    CLEAR     71  67  87 CALM      30.05S
DALTON         CLEAR     68  68 100 CALM      30.06S
GADSDEN        CLEAR     68  68 100 CALM      30.03F
GOLDEN TRNGL   NOT AVBL
HALEYVILLE     FAIR      66  66 100 CALM      30.07F FOG
JACKSON TN     CLEAR     71  71 100 E3        30.04S
MEMPHIS        PTCLDY    81  71  71 VRB3      30.02S
NASHVILLE      CLEAR     73  71  93 CALM      30.06S
OXFORD MS      FAIR      75  72  88 SE5       30.03F
ROME           CLEAR     71  71 100 CALM      30.03S
SAVANNAH       CLEAR     70  68  94 CALM      30.03S FOG
TUPELO         CLOUDY    78  70  76 CALM      30.02S
TUSCALOOSA     CLEAR     74  73  97 CALM      30.00
$$

...GULF COAST WEATHER...

CITY           SKY/WX    TMP DP  RH WIND       PRES   REMARKS
GULFPORT       CLEAR     74  71  91 CALM      29.97S
PASCAGOULA     CLEAR     69  68  96 CALM      29.98F FOG
MOBILE         CLEAR     73  70  90 CALM      29.99F
GULF SHORES    CLEAR     74  74 100 E9        29.97F
PENSACOLA      CLEAR     74  72  93 CALM      29.97F
DESTIN         CLEAR     77  71  82 CALM      29.97F
PANAMA CITY    CLEAR     73  71  94 CALM      29.98F
APPALACHICOLA  CLEAR     72  72 100 NE3       29.98F
$$





USA.gov is the U.S. government's official web portal to all federal, state and local government web resources and services.